Time,TemperatureF,DewpointF,PressureIn,WindDirection,WindDirectionDegrees,WindSpeedMPH,WindSpeedGustMPH,Humidity,HourlyPrecipIn,Conditions,Clouds,dailyrainin,SoftwareType,DateUTC
2013-07-28 07:15:00,63.5,62.6,29.90,South,180,0.0,0.0,97,0.00,CLR,,0.00,WeatherDisplay:10.37,2013-07-28 11:15:00,
2013-07-28 07:20:00,63.5,62.6,29.90,East,90,0.0,0.0,97,0.00,CLR,,0.00,WeatherDisplay:10.37,2013-07-28 11:20:00,
2013-07-28 07:25:00,63.5,62.6,29.89,West,270,0.0,0.0,97,0.00,CLR,,0.00,WeatherDisplay:10.37,2013-07-28 11:25:00,
2013-07-28 07:30:00,63.7,62.8,29.89,South,180,6.1,6.8,97,0.00,CLR,,0.00,WeatherDisplay:10.37,2013-07-28 11:30:00,
2013-07-28 07:35:00,63.9,63.0,29.90,ESE,112,0.0,0.0,97,0.00,CLR,,0.00,WeatherDisplay:10.37,2013-07-28 11:35:00,
2013-07-28 07:40:00,63.9,63.1,29.90,South,180,5.0,7.0,97,0.00,CLR,,0.00,WeatherDisplay:10.37,2013-07-28 11:40:00,
2013-07-28 07:45:00,63.9,62.7,29.90,South,180,2.4,2.7,96,0.00,CLR,,0.00,WeatherDisplay:10.37,2013-07-28 11:45:00,
2013-07-28 07:50:00,63.9,62.7,29.90,East,90,0.0,0.0,96,0.00,CLR,,0.00,WeatherDisplay:10.37,2013-07-28 11:50:00,
2013-07-28 07:55:00,63.9,63.0,29.90,SE,139,0.0,0.0,97,0.00,CLR,,0.00,WeatherDisplay:10.37,2013-07-28 11:55:00,
2013-07-28 08:00:00,63.9,63.0,29.91,South,173,0.0,0.0,97,0.00,CLR,,0.00,WeatherDisplay:10.37,2013-07-28 12:00:00,
2013-07-28 08:05:00,63.9,63.0,29.91,SW,225,0.0,0.0,97,0.00,CLR,,0.00,WeatherDisplay:10.37,2013-07-28 12:05:00,
2013-07-28 08:10:00,63.9,63.0,29.91,West,261,0.0,0.0,97,0.00,CLR,,0.00,WeatherDisplay:10.37,2013-07-28 12:10:00,
2013-07-28 08:15:00,63.9,63.3,29.90,NNE,22,0.0,0.0,98,0.00,CLR,,0.00,WeatherDisplay:10.37,2013-07-28 12:15:00,
2013-07-28 08:20:00,63.9,63.3,29.90,NE,49,0.0,0.0,98,0.00,CLR,,0.00,WeatherDisplay:10.37,2013-07-28 12:20:00,
2013-07-28 08:25:00,63.7,63.4,29.90,SW,225,0.0,0.0,99,0.00,CLR,,0.00,WeatherDisplay:10.37,2013-07-28 12:25:00,
2013-07-28 08:30:00,63.3,63.0,29.90,South,180,2.0,3.5,99,0.01,RA,,0.01,WeatherDisplay:10.37,2013-07-28 12:30:00,
2013-07-28 08:35:00,63.3,63.0,29.90,SSW,197,3.0,5.0,99,0.00,RA,,0.01,WeatherDisplay:10.37,2013-07-28 12:35:00,
2013-07-28 08:40:00,63.3,63.0,29.91,South,180,0.0,0.0,99,0.01,,,0.01,WeatherDisplay:10.37,2013-07-28 12:40:00,
2013-07-28 08:45:00,63.3,63.0,29.91,South,180,0.1,2.3,99,0.01,CLR,,0.01,WeatherDisplay:10.37,2013-07-28 12:45:00,
2013-07-28 08:50:00,63.3,63.0,29.92,South,186,3.0,5.0,99,0.00,CLR,,0.01,WeatherDisplay:10.37,2013-07-28 12:50:00,
2013-07-28 08:55:00,63.3,63.0,29.92,SSW,202,0.0,1.2,99,0.01,CLR,,0.01,WeatherDisplay:10.37,2013-07-28 12:55:00,
2013-07-28 09:00:00,63.5,63.2,29.92,SSW,202,2.2,3.5,99,0.01,CLR,,0.01,WeatherDisplay:10.37,2013-07-28 13:00:00,
2013-07-28 09:05:00,63.5,63.2,29.92,WNW,292,0.0,0.0,99,0.01,CLR,,0.01,WeatherDisplay:10.37,2013-07-28 13:05:00,
2013-07-28 09:10:00,63.5,63.2,29.92,SSW,202,2.4,2.4,99,0.01,CLR,,0.01,WeatherDisplay:10.37,2013-07-28 13:10:00,
2013-07-28 09:15:00,63.5,63.2,29.91,SSW,195,2.0,3.0,99,0.00,CLR,,0.01,WeatherDisplay:10.37,2013-07-28 13:15:00,
2013-07-28 09:20:00,63.5,63.2,29.91,South,186,0.0,2.0,99,0.00,CLR,,0.01,WeatherDisplay:10.37,2013-07-28 13:20:00,
2013-07-28 09:25:00,63.7,63.4,29.92,SSE,158,0.0,0.0,99,0.01,CLR,,0.01,WeatherDisplay:10.37,2013-07-28 13:25:00,
2013-07-28 09:30:00,64.0,63.7,29.92,SSE,150,0.0,0.0,99,0.00,CLR,,0.01,WeatherDisplay:10.37,2013-07-28 13:30:00,
2013-07-28 09:35:00,64.2,63.9,29.92,SSE,155,0.0,0.0,99,0.00,CLR,,0.01,WeatherDisplay:10.37,2013-07-28 13:35:00,
2013-07-28 09:40:00,64.8,64.2,29.92,SSW,202,0.0,0.0,98,0.00,CLR,,0.01,WeatherDisplay:10.37,2013-07-28 13:40:00,
2013-07-28 09:45:00,64.8,64.2,29.92,SSW,201,0.0,0.0,98,0.00,CLR,,0.01,WeatherDisplay:10.37,2013-07-28 13:45:00,
2013-07-28 09:50:00,64.6,63.7,29.92,SSW,202,2.1,4.6,97,0.00,CLR,,0.01,WeatherDisplay:10.37,2013-07-28 13:50:00,
2013-07-28 09:55:00,64.6,63.7,29.92,SSW,202,2.8,3.5,97,0.00,CLR,,0.01,WeatherDisplay:10.37,2013-07-28 13:55:00,
2013-07-28 10:00:00,64.8,64.0,29.91,SSW,207,2.0,6.0,97,0.00,CLR,,0.01,WeatherDisplay:10.37,2013-07-28 14:00:00,
2013-07-28 10:05:00,64.9,64.0,29.91,SSW,207,2.0,5.0,97,0.00,CLR,,0.01,WeatherDisplay:10.37,2013-07-28 14:05:00,
2013-07-28 10:10:00,64.9,63.7,29.91,South,180,3.7,4.7,96,0.00,CLR,,0.01,WeatherDisplay:10.37,2013-07-28 14:10:00,
2013-07-28 10:15:00,64.8,63.6,29.91,SSW,201,3.0,6.0,96,0.00,CLR,,0.01,WeatherDisplay:10.37,2013-07-28 14:15:00,
2013-07-28 10:20:00,64.4,63.2,29.91,SSW,202,5.5,5.8,96,0.00,CLR,,0.01,WeatherDisplay:10.37,2013-07-28 14:20:00,
2013-07-28 10:25:00,64.2,63.0,29.92,SSW,202,3.7,5.8,96,0.00,CLR,,0.01,WeatherDisplay:10.37,2013-07-28 14:25:00,
2013-07-28 10:30:00,66.2,64.4,29.92,SSE,158,3.8,6.8,94,0.00,CLR,,0.01,WeatherDisplay:10.37,2013-07-28 14:30:00,
2013-07-28 10:35:00,66.9,64.8,29.92,SW,225,2.9,6.9,93,0.00,CLR,,0.01,WeatherDisplay:10.37,2013-07-28 14:35:00,
2013-07-28 10:40:00,66.2,64.1,29.92,South,180,5.8,6.9,93,0.00,CLR,,0.01,WeatherDisplay:10.37,2013-07-28 14:40:00,
2013-07-28 10:45:00,67.1,65.0,29.92,South,180,0.2,3.5,93,0.00,CLR,,0.01,WeatherDisplay:10.37,2013-07-28 14:45:00,
2013-07-28 10:50:00,66.9,64.8,29.92,WSW,248,3.1,5.8,93,0.00,CLR,,0.01,WeatherDisplay:10.37,2013-07-28 14:50:00,
2013-07-28 10:55:00,66.9,64.5,29.92,SSW,202,1.8,2.7,92,0.00,CLR,,0.01,WeatherDisplay:10.37,2013-07-28 14:55:00,
2013-07-28 11:00:00,66.9,64.8,29.92,South,180,2.5,4.7,93,0.00,CLR,,0.01,WeatherDisplay:10.37,2013-07-28 15:00:00,
2013-07-28 11:05:00,67.5,65.1,29.92,SW,225,4.5,5.8,92,0.00,CLR,,0.01,WeatherDisplay:10.37,2013-07-28 15:05:00,
2013-07-28 11:10:00,68.4,65.7,29.92,South,180,5.7,5.8,91,0.00,CLR,,0.01,WeatherDisplay:10.37,2013-07-28 15:10:00,
2013-07-28 11:15:00,68.2,65.2,29.92,South,180,5.1,5.8,90,0.00,CLR,,0.01,WeatherDisplay:10.37,2013-07-28 15:15:00,
2013-07-28 11:20:00,68.7,66.0,29.92,South,180,3.0,4.7,91,0.00,CLR,,0.01,WeatherDisplay:10.37,2013-07-28 15:20:00,
2013-07-28 11:25:00,69.1,65.7,29.92,South,180,4.5,6.8,89,0.00,CLR,,0.01,WeatherDisplay:10.37,2013-07-28 15:25:00,
2013-07-28 11:30:00,68.9,64.5,29.92,SE,135,4.5,6.9,86,0.00,CLR,,0.01,WeatherDisplay:10.37,2013-07-28 15:30:00,
2013-07-28 11:35:00,68.2,64.8,29.92,South,180,6.3,7.3,89,0.00,CLR,,0.01,WeatherDisplay:10.37,2013-07-28 15:35:00,
2013-07-28 11:40:00,68.2,65.2,29.92,SSW,202,2.7,3.5,90,0.00,CLR,,0.01,WeatherDisplay:10.37,2013-07-28 15:40:00,
2013-07-28 11:45:00,68.7,65.3,29.92,SSW,202,2.8,5.8,89,0.00,CLR,,0.01,WeatherDisplay:10.37,2013-07-28 15:45:00,
2013-07-28 11:50:00,68.9,64.9,29.92,SSW,202,3.3,4.7,87,0.00,CLR,,0.01,WeatherDisplay:10.37,2013-07-28 15:50:00,
2013-07-28 11:55:00,68.0,65.0,29.92,SW,225,4.5,5.8,90,0.00,CLR,,0.01,WeatherDisplay:10.37,2013-07-28 15:55:00,
2013-07-28 12:00:00,67.8,64.4,29.92,SSW,202,4.7,5.8,89,0.00,CLR,,0.01,WeatherDisplay:10.37,2013-07-28 16:00:00,
2013-07-28 12:05:00,68.7,65.0,29.92,SW,225,1.3,3.5,88,0.00,CLR,,0.01,WeatherDisplay:10.37,2013-07-28 16:05:00,
2013-07-28 12:10:00,68.4,65.0,29.92,South,180,3.4,5.8,89,0.00,CLR,,0.01,WeatherDisplay:10.37,2013-07-28 16:10:00,
2013-07-28 12:15:00,68.9,65.5,29.93,West,270,1.1,2.3,89,0.00,CLR,,0.01,WeatherDisplay:10.37,2013-07-28 16:15:00,
2013-07-28 12:20:00,69.3,64.9,29.93,SSE,158,3.4,4.6,86,0.00,CLR,,0.01,WeatherDisplay:10.37,2013-07-28 16:20:00,
2013-07-28 12:25:00,70.2,66.5,29.93,SW,225,2.4,5.8,88,0.00,CLR,,0.01,WeatherDisplay:10.37,2013-07-28 16:25:00,
2013-07-28 12:30:00,70.2,65.5,29.93,WSW,248,3.8,4.6,85,0.00,CLR,,0.01,WeatherDisplay:10.37,2013-07-28 16:30:00,
2013-07-28 12:35:00,69.8,66.7,29.93,West,270,3.3,4.6,90,0.00,CLR,,0.01,WeatherDisplay:10.37,2013-07-28 16:35:00,
2013-07-28 12:40:00,69.6,65.2,29.93,SSW,202,3.0,4.2,86,0.00,CLR,,0.01,WeatherDisplay:10.37,2013-07-28 16:40:00,
2013-07-28 12:45:00,69.6,66.2,29.93,South,180,3.9,5.8,89,0.00,CLR,,0.01,WeatherDisplay:10.37,2013-07-28 16:45:00,
2013-07-28 12:50:00,69.8,65.4,29.93,SSW,202,2.5,4.6,86,0.00,CLR,,0.01,WeatherDisplay:10.37,2013-07-28 16:50:00,
2013-07-28 12:55:00,70.2,65.8,29.93,South,180,5.2,8.8,86,0.00,CLR,,0.01,WeatherDisplay:10.37,2013-07-28 16:55:00,
2013-07-28 13:00:00,69.8,65.1,29.93,SW,225,4.6,5.8,85,0.00,CLR,,0.01,WeatherDisplay:10.37,2013-07-28 17:00:00,
2013-07-28 13:05:00,70.3,65.9,29.93,WSW,248,5.4,6.9,86,0.00,CLR,,0.01,WeatherDisplay:10.37,2013-07-28 17:05:00,
2013-07-28 13:10:00,69.6,64.2,29.93,South,180,3.6,3.7,83,0.00,CLR,,0.01,WeatherDisplay:10.37,2013-07-28 17:10:00,
2013-07-28 13:15:00,70.0,65.3,29.93,SSW,202,3.9,6.9,85,0.00,CLR,,0.01,WeatherDisplay:10.37,2013-07-28 17:15:00,
2013-07-28 13:20:00,70.2,65.1,29.93,South,180,4.4,5.8,84,0.00,CLR,,0.01,WeatherDisplay:10.37,2013-07-28 17:20:00,
2013-07-28 13:25:00,70.5,64.7,29.93,West,270,4.8,6.8,82,0.00,CLR,,0.01,WeatherDisplay:10.37,2013-07-28 17:25:00,
2013-07-28 13:30:00,69.8,64.4,29.93,WNW,292,2.3,8.1,83,0.00,CLR,,0.01,WeatherDisplay:10.37,2013-07-28 17:30:00,
2013-07-28 13:35:00,69.4,64.4,29.94,SSE,158,6.0,6.9,84,0.00,CLR,,0.01,WeatherDisplay:10.37,2013-07-28 17:35:00,
2013-07-28 13:40:00,70.2,65.1,29.94,South,180,6.5,7.8,84,0.00,CLR,,0.01,WeatherDisplay:10.37,2013-07-28 17:40:00,
2013-07-28 13:46:00,70.9,65.5,29.94,South,180,5.5,6.9,83,0.00,CLR,,0.01,WeatherDisplay:10.37,2013-07-28 17:46:00,
2013-07-28 13:51:00,70.7,64.9,29.93,SSE,158,4.3,5.8,82,0.00,CLR,,0.01,WeatherDisplay:10.37,2013-07-28 17:51:00,
2013-07-28 13:56:00,70.9,65.1,29.93,South,180,5.5,5.8,82,0.00,CLR,,0.01,WeatherDisplay:10.37,2013-07-28 17:56:00,
2013-07-28 14:01:00,71.1,65.7,29.93,South,180,8.5,9.2,83,0.00,CLR,,0.01,WeatherDisplay:10.37,2013-07-28 18:01:00,
2013-07-28 14:06:00,71.4,66.0,29.93,South,180,5.8,6.9,83,0.00,CLR,,0.01,WeatherDisplay:10.37,2013-07-28 18:06:00,
2013-07-28 14:11:00,72.9,66.4,29.93,WSW,248,3.8,4.6,80,0.00,CLR,,0.01,WeatherDisplay:10.37,2013-07-28 18:11:00,
2013-07-28 14:16:00,72.1,65.9,29.93,SSE,158,6.5,7.3,81,0.00,CLR,,0.01,WeatherDisplay:10.37,2013-07-28 18:16:00,
2013-07-28 14:21:00,72.0,65.8,29.93,SSW,202,7.9,10.4,81,0.00,CLR,,0.01,WeatherDisplay:10.37,2013-07-28 18:21:00,
2013-07-28 14:26:00,70.9,64.8,29.94,SSW,202,7.4,9.2,81,0.00,CLR,,0.01,WeatherDisplay:10.37,2013-07-28 18:26:00,
2013-07-28 14:31:00,71.4,64.9,29.94,SSW,202,8.3,10.4,80,0.00,CLR,,0.01,WeatherDisplay:10.37,2013-07-28 18:31:00,
2013-07-28 14:36:00,73.6,65.9,29.93,South,180,3.5,4.7,77,0.00,CLR,,0.01,WeatherDisplay:10.37,2013-07-28 18:36:00,
2013-07-28 14:41:00,73.6,65.9,29.93,WSW,248,5.8,6.9,77,0.00,CLR,,0.01,WeatherDisplay:10.37,2013-07-28 18:41:00,
2013-07-28 14:46:00,73.6,65.6,29.93,SSW,202,5.0,6.9,76,0.00,CLR,,0.01,WeatherDisplay:10.37,2013-07-28 18:46:00,
2013-07-28 14:51:00,72.1,65.2,29.93,South,180,2.6,6.9,79,0.00,CLR,,0.01,WeatherDisplay:10.37,2013-07-28 18:51:00,
2013-07-28 14:56:00,71.8,64.6,29.93,South,180,6.0,9.4,78,0.00,CLR,,0.01,WeatherDisplay:10.37,2013-07-28 18:56:00,
2013-07-28 15:01:00,72.0,64.4,29.93,West,270,2.7,4.6,77,0.00,CLR,,0.01,WeatherDisplay:10.37,2013-07-28 19:01:00,
2013-07-28 15:06:00,70.0,63.5,29.93,South,180,6.9,8.1,80,0.00,CLR,,0.01,WeatherDisplay:10.37,2013-07-28 19:06:00,
2013-07-28 15:11:00,71.6,65.1,29.93,SSW,202,5.9,6.9,80,0.00,CLR,,0.01,WeatherDisplay:10.37,2013-07-28 19:11:00,
2013-07-28 15:16:00,73.8,66.1,29.93,SSE,158,3.3,4.6,77,0.00,CLR,,0.01,WeatherDisplay:10.37,2013-07-28 19:16:00,
2013-07-28 15:22:00,73.2,65.2,29.93,South,180,5.3,5.8,76,0.00,CLR,,0.01,WeatherDisplay:10.37,2013-07-28 19:22:00,
2013-07-28 15:27:00,76.3,66.2,29.92,ENE,68,3.5,4.6,71,0.00,CLR,,0.01,WeatherDisplay:10.37,2013-07-28 19:27:00,
2013-07-28 15:32:00,76.1,66.4,29.92,SSE,158,7.2,9.2,72,0.00,CLR,,0.01,WeatherDisplay:10.37,2013-07-28 19:32:00,
2013-07-28 15:37:00,74.5,66.1,29.93,South,180,5.8,7.8,75,0.00,CLR,,0.01,WeatherDisplay:10.37,2013-07-28 19:37:00,
2013-07-28 15:42:00,73.2,65.9,29.93,SSE,158,5.4,6.8,78,0.00,CLR,,0.01,WeatherDisplay:10.37,2013-07-28 19:42:00,
2013-07-28 15:47:00,73.2,65.2,29.93,SSW,202,4.7,8.1,76,0.00,CLR,,0.01,WeatherDisplay:10.37,2013-07-28 19:47:00,
2013-07-28 15:52:00,72.0,64.4,29.93,SSW,202,5.1,9.2,77,0.00,CLR,,0.01,WeatherDisplay:10.37,2013-07-28 19:52:00,
2013-07-28 15:57:00,70.9,64.4,29.93,South,180,5.4,6.3,80,0.00,CLR,,0.01,WeatherDisplay:10.37,2013-07-28 19:57:00,
2013-07-28 16:02:00,72.3,64.7,29.93,South,180,8.1,9.9,77,0.00,CLR,,0.01,WeatherDisplay:10.37,2013-07-28 20:02:00,
2013-07-28 16:07:00,72.5,65.2,29.93,SSE,158,6.2,9.2,78,0.00,CLR,,0.01,WeatherDisplay:10.37,2013-07-28 20:07:00,
2013-07-28 16:12:00,72.3,64.7,29.93,SSE,158,6.6,8.3,77,0.00,CLR,,0.01,WeatherDisplay:10.37,2013-07-28 20:12:00,
2013-07-28 16:17:00,72.3,64.7,29.93,South,180,6.5,8.1,77,0.00,CLR,,0.01,WeatherDisplay:10.37,2013-07-28 20:17:00,
2013-07-28 16:22:00,73.6,65.2,29.93,ESE,112,3.2,5.8,75,0.00,CLR,,0.01,WeatherDisplay:10.37,2013-07-28 20:22:00,
2013-07-28 16:27:00,73.6,65.6,29.93,West,270,4.2,9.2,76,0.00,CLR,,0.01,WeatherDisplay:10.37,2013-07-28 20:27:00,
2013-07-28 16:32:00,76.5,66.8,29.93,SSW,202,3.5,4.6,72,0.00,CLR,,0.01,WeatherDisplay:10.37,2013-07-28 20:32:00,
2013-07-28 16:37:00,73.8,65.0,29.93,SSW,202,8.0,9.9,74,0.00,CLR,,0.01,WeatherDisplay:10.37,2013-07-28 20:37:00,
2013-07-28 16:42:00,72.3,65.1,29.93,South,180,8.0,9.2,78,0.00,CLR,,0.01,WeatherDisplay:10.37,2013-07-28 20:42:00,
2013-07-28 16:47:00,70.9,63.7,29.93,South,180,4.6,5.8,78,0.00,CLR,,0.01,WeatherDisplay:10.37,2013-07-28 20:47:00,
2013-07-28 16:52:00,70.9,64.1,29.93,South,180,6.1,9.2,79,0.00,CLR,,0.01,WeatherDisplay:10.37,2013-07-28 20:52:00,
2013-07-28 16:57:00,72.5,65.2,29.93,SSW,202,4.4,5.8,78,0.00,CLR,,0.01,WeatherDisplay:10.37,2013-07-28 20:57:00,
2013-07-28 17:03:00,72.5,65.2,29.94,SSW,202,4.7,4.7,78,0.00,CLR,,0.01,WeatherDisplay:10.37,2013-07-28 21:03:00,
2013-07-28 17:08:00,69.4,63.3,29.94,SW,225,7.2,8.1,81,0.00,CLR,,0.01,WeatherDisplay:10.37,2013-07-28 21:08:00,
2013-07-28 17:13:00,69.6,63.2,29.94,South,180,4.9,5.8,80,0.00,CLR,,0.01,WeatherDisplay:10.37,2013-07-28 21:13:00,
2013-07-28 17:18:00,67.8,62.1,29.94,South,180,7.5,8.1,82,0.00,CLR,,0.01,WeatherDisplay:10.37,2013-07-28 21:18:00,